EW3221 Weather Reports


time (UTC)temp
C
wind
direction
speed
KPH
gust
KPH
rain 1hr
cm
rain 24hr
cm
rain mn
cm
humidity
%
barometer
mb
20260504081535 8 153 0.0 1.6 0.00 0.00 0.00 83 1015.6
20260504050009 5 264 0.0 0.0 0.00 0.00 0.00 85 1015.8
20260504044513 4 264 0.0 0.0 0.00 0.00 0.00 84 1015.7
20260504043011 4 264 0.0 0.0 0.00 0.00 0.00 83 1015.7
20260504041511 4 264 0.0 0.0 0.00 0.00 0.00 83 1015.9
20260504040100 4 264 0.0 0.0 0.00 0.00 0.00 81 1015.8
20260504034623 5 264 0.0 0.0 0.00 0.00 0.00 80 1015.7
20260504033059 5 264 0.0 0.0 0.00 0.00 0.00 80 1015.5
20260504031559 5 264 0.0 0.0 0.00 0.00 0.00 80 1015.4
20260504030058 5 264 0.0 0.0 0.00 0.00 0.00 80 1015.3
20260504024557 5 264 0.0 0.0 0.00 0.00 0.00 78 1015.3
20260504023056 5 264 0.0 0.0 0.00 0.00 0.00 76 1015.2
20260504021556 6 264 0.0 0.0 0.00 0.00 0.00 75 1015.2
20260504020119 6 264 0.0 0.0 0.00 0.00 0.00 74 1015.1
20260504014559 6 264 0.0 0.0 0.00 0.00 0.00 71 1015.0
20260504013113 7 264 0.0 0.0 0.00 0.00 0.00 69 1015.0
20260504011553 7 264 0.0 0.0 0.00 0.00 0.00 67 1014.8
20260504010055 8 264 0.0 0.0 0.00 0.00 0.00 65 1014.6
20260504004553 8 264 0.0 0.0 0.00 0.00 0.00 60 1014.7
20260504003053 10 264 0.0 0.0 0.00 0.00 0.00 57 1014.5
20260504001553 10 264 0.0 0.0 0.00 0.00 0.00 55 1014.4
20260504000052 11 254 0.0 0.0 0.00 0.00 0.00 51 1014.3
20260503234551 12 254 0.0 0.0 0.00 0.00 0.00 45 1014.1
20260503233051 13 254 0.0 1.6 0.00 0.00 0.00 42 1013.9
20260503231550 14 285 0.0 3.2 0.00 0.00 0.00 39 1013.9
20260503230049 15 5 1.6 14.5 0.00 0.00 0.00 36 1013.8
20260503224558 15 302 1.6 14.5 0.00 0.00 0.00 38 1013.9
20260503223049 15 262 0.0 9.7 0.00 0.00 0.00 36 1013.9
20260503221558 15 309 0.0 14.5 0.00 0.00 0.00 40 1013.9
20260503220048 16 223 0.0 8.0 0.00 0.00 0.00 36 1014.1
20260503214548 16 304 8.0 20.9 0.00 0.00 0.00 34 1014.0
20260503213047 16 298 0.0 12.9 0.00 0.00 0.00 33 1013.9
20260503211549 16 184 1.6 17.7 0.00 0.00 0.00 35 1014.0
20260503210045 16 253 0.0 8.0 0.00 0.00 0.00 36 1014.0
20260503204556 16 263 0.0 17.7 0.00 0.00 0.00 35 1014.0
20260503203046 16 280 0.0 14.5 0.00 0.00 0.00 36 1014.3
20260503201543 17 302 1.6 14.5 0.00 0.00 0.00 35 1014.4
20260503200042 17 213 4.8 22.5 0.00 0.00 0.00 37 1014.6
20260503194545 16 284 8.0 22.5 0.00 0.00 0.00 36 1014.9
20260503193046 16 238 1.6 16.1 0.00 0.00 0.00 34 1014.9
20260503191603 16 341 12.9 25.7 0.00 0.00 0.00 38 1015.2
20260503190036 16 280 0.0 17.7 0.00 0.00 0.00 38 1015.4
20260503184537 16 257 6.4 19.3 0.00 0.00 0.00 39 1015.5
20260503183035 15 273 3.2 19.3 0.00 0.00 0.00 36 1015.6
20260503181545 15 321 0.0 22.5 0.00 0.00 0.00 41 1015.6
20260503180036 15 292 6.4 24.1 0.00 0.00 0.00 41 1015.7
20260503174543 15 295 3.2 27.4 0.00 0.00 0.00 41 1015.7
20260503173030 15 329 9.7 19.3 0.00 0.00 0.00 41 1015.9
20260503171530 13 318 11.3 25.7 0.00 0.00 0.00 42 1016.0